Location: Home
(42.5358°N, 72.7383°W)
Time: 22:26:25
(UTC-05:00)

Vanguard 2 Rocket - Pass Details

Date: 06 December 2021
Orbit: 554 x 3325 km, 32.9° (Epoch: 21 January)

Event Time Altitude Azimuth Distance (km) Brightness Sun altitude
Rises 17:02:47 0° 229° (SW) 2,965 11.2 -8.2°
Reaches altitude 10° 17:05:03 10° 216° (SW) 2,231 9.9 -8.6°
Maximum altitude 17:09:25 28° 157° (SSE) 1,692 8.3 -9.4°
Drops below altitude 10° 17:15:54 10° 102° (ESE) 3,394 9.3 -10.5°
Enters shadow 17:17:10 - 99° (E) 3,828 9.6 -10.7°
Sets 17:20:13 0° 93° (E) 4,878 - -11.2°
